TimeCST,TemperatureF,Dew PointF,Humidity,Sea Level PressureIn,VisibilityMPH,Wind Direction,Wind SpeedMPH,Gust SpeedMPH,PrecipitationIn,Events,Conditions,WindDirDegrees,DateUTC
12:54 AM,30.9,28.0,89,30.44,10.0,Calm,Calm,-,N/A,,Clear,0,2013-01-19 06:54:00
1:54 AM,30.9,28.0,89,30.44,10.0,Calm,Calm,-,N/A,,Clear,0,2013-01-19 07:54:00
2:54 AM,30.0,28.0,92,30.43,10.0,Calm,Calm,-,N/A,,Clear,0,2013-01-19 08:54:00
3:54 AM,30.0,27.0,88,30.42,10.0,Calm,Calm,-,N/A,,Clear,0,2013-01-19 09:54:00
4:54 AM,30.0,28.0,92,30.41,10.0,Calm,Calm,-,N/A,,Clear,0,2013-01-19 10:54:00
5:54 AM,30.0,27.0,88,30.41,10.0,Calm,Calm,-,N/A,,Clear,0,2013-01-19 11:54:00
6:54 AM,30.0,27.0,88,30.41,10.0,Calm,Calm,-,N/A,,Clear,0,2013-01-19 12:54:00
7:54 AM,32.0,28.9,88,30.41,10.0,Calm,Calm,-,N/A,,Clear,0,2013-01-19 13:54:00
8:54 AM,39.0,37.0,93,30.41,10.0,Calm,Calm,-,N/A,,Clear,0,2013-01-19 14:54:00
9:54 AM,52.0,36.0,54,30.43,10.0,Variable,4.6,-,N/A,,Clear,0,2013-01-19 15:54:00
10:54 AM,54.0,36.0,51,30.42,10.0,SSW,5.8,-,N/A,,Clear,200,2013-01-19 16:54:00
11:54 AM,57.0,39.0,51,30.39,10.0,Calm,Calm,-,N/A,,Clear,0,2013-01-19 17:54:00
12:54 PM,57.9,37.9,47,30.34,10.0,Variable,4.6,-,N/A,,Clear,0,2013-01-19 18:54:00
1:54 PM,59.0,33.1,38,30.32,10.0,Variable,3.5,-,N/A,,Clear,0,2013-01-19 19:54:00
2:54 PM,60.1,34.0,38,30.30,10.0,SW,3.5,-,N/A,,Clear,230,2013-01-19 20:54:00
3:54 PM,62.1,28.0,28,30.30,10.0,Calm,Calm,-,N/A,,Clear,0,2013-01-19 21:54:00
4:54 PM,57.0,30.9,37,30.30,10.0,Calm,Calm,-,N/A,,Clear,0,2013-01-19 22:54:00
5:54 PM,48.9,36.0,61,30.30,10.0,Calm,Calm,-,N/A,,Clear,0,2013-01-19 23:54:00
6:54 PM,44.1,34.0,68,30.32,10.0,Calm,Calm,-,N/A,,Clear,0,2013-01-20 00:54:00
7:54 PM,41.0,34.0,76,30.32,10.0,Calm,Calm,-,N/A,,Clear,0,2013-01-20 01:54:00
8:54 PM,39.0,34.0,82,30.32,10.0,Calm,Calm,-,N/A,,Clear,0,2013-01-20 02:54:00
9:54 PM,37.9,33.1,83,30.33,10.0,Calm,Calm,-,N/A,,Clear,0,2013-01-20 03:54:00
10:54 PM,37.0,34.0,89,30.34,10.0,Calm,Calm,-,N/A,,Clear,0,2013-01-20 04:54:00
11:54 PM,37.0,34.0,89,30.34,10.0,Calm,Calm,-,N/A,,Clear,0,2013-01-20 05:54:00